iso_date,epoch_date,Year,Hour,Min,DOY,POS_DOY,Lat,Lon,BP,Ts,Ta,has_bp,has_ts,has_ta,BuoyID,Buoy_Type,Buoy_Owner,Logistics,Hemisphere
2017-12-16T16:59:31Z,1513443571,2017,17,0,350.708,350.708,-62.995,-0.001,976.0,19.8,-999.0,yes,yes,no,300234063479660,BD2GI,AOML,SA_AGULHAS,South
2017-12-16T18:00:00Z,1513447200,2017,18,0,350.75,350.75,-62.998,0.0016,976.0,-1.53,-999.0,yes,yes,no,300234063479660,BD2GI,AOML,SA_AGULHAS,South
2017-12-16T19:00:28Z,1513450829,2017,19,0,350.792,350.792,-62.9996,0.008,974.9,-1.53,-999.0,yes,yes,no,300234063479660,BD2GI,AOML,SA_AGULHAS,South
2017-12-16T19:59:31Z,1513454371,2017,20,0,350.833,350.833,-63.0004,0.0116,974.2,-1.53,-999.0,yes,yes,no,300234063479660,BD2GI,AOML,SA_AGULHAS,South
2017-12-16T21:00:00Z,1513458000,2017,21,0,350.875,350.875,-63.0014,0.014,973.1,-1.53,-999.0,yes,yes,no,300234063479660,BD2GI,AOML,SA_AGULHAS,South
2017-12-16T22:00:28Z,1513461629,2017,22,0,350.917,350.917,-63.0004,0.0168,972.7,-1.53,-999.0,yes,yes,no,300234063479660,BD2GI,AOML,SA_AGULHAS,South
2017-12-16T22:59:31Z,1513465171,2017,23,0,350.958,350.958,-62.9998,0.0192,972.1,-1.53,-999.0,yes,yes,no,300234063479660,BD2GI,AOML,SA_AGULHAS,South
2017-12-17T00:00:00Z,1513468800,2017,0,0,351.0,351.0,-62.9992,0.0186,971.5,-1.53,-999.0,yes,yes,no,300234063479660,BD2GI,AOML,SA_AGULHAS,South
2017-12-17T01:00:28Z,1513472429,2017,1,0,351.042,351.042,-62.9988,0.0186,970.9,-1.53,-999.0,yes,yes,no,300234063479660,BD2GI,AOML,SA_AGULHAS,South
2017-12-17T01:59:31Z,1513475971,2017,2,0,351.083,351.083,-63.0,0.0186,970.4,-1.53,-999.0,yes,yes,no,300234063479660,BD2GI,AOML,SA_AGULHAS,South
2017-12-17T03:00:00Z,1513479600,2017,3,0,351.125,351.125,-63.0016,0.019,970.1,-1.53,-999.0,yes,yes,no,300234063479660,BD2GI,AOML,SA_AGULHAS,South
2017-12-17T04:00:28Z,1513483229,2017,4,0,351.167,351.167,-63.0034,0.0194,969.9,-1.53,-999.0,yes,yes,no,300234063479660,BD2GI,AOML,SA_AGULHAS,South
2017-12-17T04:59:31Z,1513486771,2017,5,0,351.208,351.208,-63.0042,0.0212,969.9,-1.53,-999.0,yes,yes,no,300234063479660,BD2GI,AOML,SA_AGULHAS,South
2017-12-17T06:00:00Z,1513490400,2017,6,0,351.25,351.25,-63.0046,0.026,970.0,-1.57,-999.0,yes,yes,no,300234063479660,BD2GI,AOML,SA_AGULHAS,South
2017-12-17T07:00:28Z,1513494029,2017,7,0,351.292,351.292,-63.0042,0.0314,970.4,-1.64,-999.0,yes,yes,no,300234063479660,BD2GI,AOML,SA_AGULHAS,South
2017-12-17T07:59:31Z,1513497571,2017,8,0,351.333,351.333,-63.0018,0.0348,970.7,-1.57,-999.0,yes,yes,no,300234063479660,BD2GI,AOML,SA_AGULHAS,South
2017-12-17T09:00:00Z,1513501200,2017,9,0,351.375,351.375,-62.9994,0.0428,971.3,-1.57,-999.0,yes,yes,no,300234063479660,BD2GI,AOML,SA_AGULHAS,South
2017-12-17T10:00:28Z,1513504829,2017,10,0,351.417,351.417,-62.994,0.0466,971.8,-1.53,-999.0,yes,yes,no,300234063479660,BD2GI,AOML,SA_AGULHAS,South
2017-12-17T10:59:31Z,1513508371,2017,11,0,351.458,351.458,-62.9882,0.0502,972.5,-1.53,-999.0,yes,yes,no,300234063479660,BD2GI,AOML,SA_AGULHAS,South
2017-12-17T12:00:00Z,1513512000,2017,12,0,351.5,351.5,-62.9824,0.0534,973.2,-1.53,-999.0,yes,yes,no,300234063479660,BD2GI,AOML,SA_AGULHAS,South
2017-12-17T13:00:28Z,1513515629,2017,13,0,351.542,351.542,-62.9764,0.0538,973.6,-1.5,-999.0,yes,yes,no,300234063479660,BD2GI,AOML,SA_AGULHAS,South
2017-12-17T13:59:31Z,1513519171,2017,14,0,351.583,351.583,-62.9764,0.0538,974.1,-1.5,-999.0,yes,yes,no,300234063479660,BD2GI,AOML,SA_AGULHAS,South
2017-12-17T15:00:00Z,1513522800,2017,15,0,351.625,351.625,-62.9698,0.0492,974.0,-1.5,-999.0,yes,yes,no,300234063479660,BD2GI,AOML,SA_AGULHAS,South
2017-12-17T16:00:28Z,1513526429,2017,16,0,351.667,351.667,-62.9682,0.045,974.3,-1.43,-999.0,yes,yes,no,300234063479660,BD2GI,AOML,SA_AGULHAS,South
2017-12-17T16:59:31Z,1513529971,2017,17,0,351.708,351.708,-62.967,0.0412,974.1,-1.43,-999.0,yes,yes,no,300234063479660,BD2GI,AOML,SA_AGULHAS,South
2017-12-17T18:00:00Z,1513533600,2017,18,0,351.75,351.75,-62.9674,0.0394,973.8,-1.43,-999.0,yes,yes,no,300234063479660,BD2GI,AOML,SA_AGULHAS,South
2017-12-17T19:00:28Z,1513537229,2017,19,0,351.792,351.792,-62.9676,0.0388,973.4,-1.47,-999.0,yes,yes,no,300234063479660,BD2GI,AOML,SA_AGULHAS,South
2017-12-17T19:59:31Z,1513540771,2017,20,0,351.833,351.833,-62.9672,0.0388,973.1,-1.47,-999.0,yes,yes,no,300234063479660,BD2GI,AOML,SA_AGULHAS,South
2017-12-17T21:00:00Z,1513544400,2017,21,0,351.875,351.875,-62.9682,0.0414,973.0,-1.47,-999.0,yes,yes,no,300234063479660,BD2GI,AOML,SA_AGULHAS,South
2017-12-17T22:00:28Z,1513548029,2017,22,0,351.917,351.917,-62.9666,0.0482,973.1,-1.47,-999.0,yes,yes,no,300234063479660,BD2GI,AOML,SA_AGULHAS,South
2017-12-17T22:59:31Z,1513551571,2017,23,0,351.958,351.958,-62.964,0.0572,972.8,-1.47,-999.0,yes,yes,no,300234063479660,BD2GI,AOML,SA_AGULHAS,South
2017-12-18T00:00:00Z,1513555200,2017,0,0,352.0,352.0,-62.9602,0.064,972.7,-1.47,-999.0,yes,yes,no,300234063479660,BD2GI,AOML,SA_AGULHAS,South
2017-12-18T01:00:28Z,1513558829,2017,1,0,352.042,352.042,-62.9566,0.0676,972.6,-1.47,-999.0,yes,yes,no,300234063479660,BD2GI,AOML,SA_AGULHAS,South
2017-12-18T01:59:31Z,1513562371,2017,2,0,352.083,352.083,-62.9528,0.0684,972.6,-1.47,-999.0,yes,yes,no,300234063479660,BD2GI,AOML,SA_AGULHAS,South
2017-12-18T03:00:00Z,1513566000,2017,3,0,352.125,352.125,-62.9494,0.0668,972.4,-1.47,-999.0,yes,yes,no,300234063479660,BD2GI,AOML,SA_AGULHAS,South
2017-12-18T04:00:28Z,1513569629,2017,4,0,352.167,352.167,-62.946,0.0624,973.0,-1.47,-999.0,yes,yes,no,300234063479660,BD2GI,AOML,SA_AGULHAS,South
2017-12-18T04:59:31Z,1513573171,2017,5,0,352.208,352.208,-62.9442,0.057,973.2,-1.47,-999.0,yes,yes,no,300234063479660,BD2GI,AOML,SA_AGULHAS,South
2017-12-18T06:00:00Z,1513576800,2017,6,0,352.25,352.25,-62.9424,0.0496,973.9,-1.47,-999.0,yes,yes,no,300234063479660,BD2GI,AOML,SA_AGULHAS,South
2017-12-18T07:00:28Z,1513580429,2017,7,0,352.292,352.292,-62.942,0.0436,974.6,-1.47,-999.0,yes,yes,no,300234063479660,BD2GI,AOML,SA_AGULHAS,South
2017-12-18T07:59:31Z,1513583971,2017,8,0,352.333,352.333,-62.9426,0.0406,975.4,-1.47,-999.0,yes,yes,no,300234063479660,BD2GI,AOML,SA_AGULHAS,South
2017-12-18T09:00:00Z,1513587600,2017,9,0,352.375,352.375,-62.9434,0.044,976.1,-1.47,-999.0,yes,yes,no,300234063479660,BD2GI,AOML,SA_AGULHAS,South
2017-12-18T10:00:28Z,1513591229,2017,10,0,352.417,352.417,-62.9432,0.0524,977.0,-1.43,-999.0,yes,yes,no,300234063479660,BD2GI,AOML,SA_AGULHAS,South
2017-12-18T10:59:31Z,1513594771,2017,11,0,352.458,352.458,-62.9412,0.0636,978.3,-1.43,-999.0,yes,yes,no,300234063479660,BD2GI,AOML,SA_AGULHAS,South
2017-12-18T12:00:00Z,1513598400,2017,12,0,352.5,352.5,-62.9382,0.0714,979.0,-1.43,-999.0,yes,yes,no,300234063479660,BD2GI,AOML,SA_AGULHAS,South
2017-12-18T13:00:28Z,1513602029,2017,13,0,352.542,352.542,-62.934,0.0786,979.5,-1.4,-999.0,yes,yes,no,300234063479660,BD2GI,AOML,SA_AGULHAS,South
2017-12-18T13:59:31Z,1513605571,2017,14,0,352.583,352.583,-62.929,0.083,980.4,-1.4,-999.0,yes,yes,no,300234063479660,BD2GI,AOML,SA_AGULHAS,South
2017-12-18T15:00:00Z,1513609200,2017,15,0,352.625,352.625,-62.9236,0.0846,981.1,-1.4,-999.0,yes,yes,no,300234063479660,BD2GI,AOML,SA_AGULHAS,South
2017-12-18T16:00:28Z,1513612829,2017,16,0,352.667,352.667,-62.9188,0.0814,981.6,-1.36,-999.0,yes,yes,no,300234063479660,BD2GI,AOML,SA_AGULHAS,South
2017-12-18T16:59:31Z,1513616371,2017,17,0,352.708,352.708,-62.9152,0.0756,982.2,-1.33,-999.0,yes,yes,no,300234063479660,BD2GI,AOML,SA_AGULHAS,South
2017-12-18T18:00:00Z,1513620000,2017,18,0,352.75,352.75,-62.9128,0.0692,982.4,-1.36,-999.0,yes,yes,no,300234063479660,BD2GI,AOML,SA_AGULHAS,South
2017-12-18T19:00:28Z,1513623629,2017,19,0,352.792,352.792,-62.912,0.0604,982.3,-1.36,-999.0,yes,yes,no,300234063479660,BD2GI,AOML,SA_AGULHAS,South
2017-12-18T19:59:31Z,1513627171,2017,20,0,352.833,352.833,-62.9134,0.0562,982.3,-1.36,-999.0,yes,yes,no,300234063479660,BD2GI,AOML,SA_AGULHAS,South
2017-12-18T21:00:00Z,1513630800,2017,21,0,352.875,352.875,-62.915,0.0542,982.4,-1.36,-999.0,yes,yes,no,300234063479660,BD2GI,AOML,SA_AGULHAS,South
2017-12-18T22:00:28Z,1513634429,2017,22,0,352.917,352.917,-62.9174,0.0556,982.5,-1.36,-999.0,yes,yes,no,300234063479660,BD2GI,AOML,SA_AGULHAS,South
2017-12-18T22:59:31Z,1513637971,2017,23,0,352.958,352.958,-62.9178,0.0674,982.4,-1.36,-999.0,yes,yes,no,300234063479660,BD2GI,AOML,SA_AGULHAS,South
2017-12-19T00:00:00Z,1513641600,2017,0,0,353.0,353.0,-62.9168,0.0738,981.9,-1.4,-999.0,yes,yes,no,300234063479660,BD2GI,AOML,SA_AGULHAS,South
2017-12-19T01:00:28Z,1513645229,2017,1,0,353.042,353.042,-62.9154,0.082,981.0,-1.36,-999.0,yes,yes,no,300234063479660,BD2GI,AOML,SA_AGULHAS,South
2017-12-19T01:59:31Z,1513648771,2017,2,0,353.083,353.083,-62.9132,0.0862,980.2,-1.4,-999.0,yes,yes,no,300234063479660,BD2GI,AOML,SA_AGULHAS,South
2017-12-19T03:00:00Z,1513652400,2017,3,0,353.125,353.125,-62.9112,0.091,979.5,-1.4,-999.0,yes,yes,no,300234063479660,BD2GI,AOML,SA_AGULHAS,South
2017-12-19T04:00:28Z,1513656029,2017,4,0,353.167,353.167,-62.9082,0.0922,978.6,-1.36,-999.0,yes,yes,no,300234063479660,BD2GI,AOML,SA_AGULHAS,South
2017-12-19T04:59:31Z,1513659571,2017,5,0,353.208,353.208,-62.9042,0.0888,977.8,-1.4,-999.0,yes,yes,no,300234063479660,BD2GI,AOML,SA_AGULHAS,South
2017-12-19T06:00:00Z,1513663200,2017,6,0,353.25,353.25,-62.901,0.0844,976.8,-1.36,-999.0,yes,yes,no,300234063479660,BD2GI,AOML,SA_AGULHAS,South
2017-12-19T07:00:28Z,1513666829,2017,7,0,353.292,353.292,-62.8988,0.0774,976.2,-1.36,-999.0,yes,yes,no,300234063479660,BD2GI,AOML,SA_AGULHAS,South
2017-12-19T07:59:31Z,1513670371,2017,8,0,353.333,353.333,-62.8996,0.0708,975.3,-1.36,-999.0,yes,yes,no,300234063479660,BD2GI,AOML,SA_AGULHAS,South
2017-12-19T09:00:00Z,1513674000,2017,9,0,353.375,353.375,-62.901,0.0668,974.5,-1.33,-999.0,yes,yes,no,300234063479660,BD2GI,AOML,SA_AGULHAS,South
2017-12-19T10:00:28Z,1513677629,2017,10,0,353.417,353.417,-62.9034,0.066,973.9,-1.29,-999.0,yes,yes,no,300234063479660,BD2GI,AOML,SA_AGULHAS,South
2017-12-19T10:59:31Z,1513681171,2017,11,0,353.458,353.458,-62.9058,0.0678,973.4,-1.26,-999.0,yes,yes,no,300234063479660,BD2GI,AOML,SA_AGULHAS,South
2017-12-19T12:00:00Z,1513684800,2017,12,0,353.5,353.5,-62.9072,0.0722,972.9,-1.23,-999.0,yes,yes,no,300234063479660,BD2GI,AOML,SA_AGULHAS,South
2017-12-19T13:00:28Z,1513688429,2017,13,0,353.542,353.542,-62.9078,0.08,972.5,-1.23,-999.0,yes,yes,no,300234063479660,BD2GI,AOML,SA_AGULHAS,South
2017-12-19T13:59:31Z,1513691971,2017,14,0,353.583,353.583,-62.9086,0.0874,972.3,-1.19,-999.0,yes,yes,no,300234063479660,BD2GI,AOML,SA_AGULHAS,South
2017-12-19T15:00:00Z,1513695600,2017,15,0,353.625,353.625,-62.907,0.0956,972.3,-1.19,-999.0,yes,yes,no,300234063479660,BD2GI,AOML,SA_AGULHAS,South
2017-12-19T16:00:28Z,1513699229,2017,16,0,353.667,353.667,-62.9028,0.1014,972.3,-1.19,-999.0,yes,yes,no,300234063479660,BD2GI,AOML,SA_AGULHAS,South
2017-12-19T16:59:31Z,1513702771,2017,17,0,353.708,353.708,-62.8978,0.1048,972.5,-1.19,-999.0,yes,yes,no,300234063479660,BD2GI,AOML,SA_AGULHAS,South
2017-12-19T18:00:00Z,1513706400,2017,18,0,353.75,353.75,-62.893,0.104,972.8,-1.23,-999.0,yes,yes,no,300234063479660,BD2GI,AOML,SA_AGULHAS,South
2017-12-19T19:00:28Z,1513710029,2017,19,0,353.792,353.792,-62.8878,0.1012,973.2,-1.23,-999.0,yes,yes,no,300234063479660,BD2GI,AOML,SA_AGULHAS,South
2017-12-19T19:59:31Z,1513713571,2017,20,0,353.833,353.833,-62.8842,0.0924,973.8,-1.26,-999.0,yes,yes,no,300234063479660,BD2GI,AOML,SA_AGULHAS,South
2017-12-19T21:00:00Z,1513717200,2017,21,0,353.875,353.875,-62.8828,0.0806,974.0,-1.26,-999.0,yes,yes,no,300234063479660,BD2GI,AOML,SA_AGULHAS,South
2017-12-19T22:00:28Z,1513720829,2017,22,0,353.917,353.917,-62.883,0.0738,974.1,-1.26,-999.0,yes,yes,no,300234063479660,BD2GI,AOML,SA_AGULHAS,South
2017-12-19T22:59:31Z,1513724371,2017,23,0,353.958,353.958,-62.8842,0.0704,974.5,-1.29,-999.0,yes,yes,no,300234063479660,BD2GI,AOML,SA_AGULHAS,South
2017-12-20T00:00:00Z,1513728000,2017,0,0,354.0,354.0,-62.8858,0.0702,975.1,-1.29,-999.0,yes,yes,no,300234063479660,BD2GI,AOML,SA_AGULHAS,South
2017-12-20T01:00:28Z,1513731629,2017,1,0,354.042,354.042,-62.8868,0.0754,975.2,-1.29,-999.0,yes,yes,no,300234063479660,BD2GI,AOML,SA_AGULHAS,South
2017-12-20T01:59:31Z,1513735171,2017,2,0,354.083,354.083,-62.8882,0.0832,974.9,-1.29,-999.0,yes,yes,no,300234063479660,BD2GI,AOML,SA_AGULHAS,South
2017-12-20T03:00:00Z,1513738800,2017,3,0,354.125,354.125,-62.8866,0.0922,975.0,-1.29,-999.0,yes,yes,no,300234063479660,BD2GI,AOML,SA_AGULHAS,South
2017-12-20T04:00:28Z,1513742429,2017,4,0,354.167,354.167,-62.885,0.098,974.7,-1.29,-999.0,yes,yes,no,300234063479660,BD2GI,AOML,SA_AGULHAS,South
2017-12-20T04:59:31Z,1513745971,2017,5,0,354.208,354.208,-62.8826,0.1044,974.4,-1.29,-999.0,yes,yes,no,300234063479660,BD2GI,AOML,SA_AGULHAS,South
2017-12-20T06:00:00Z,1513749600,2017,6,0,354.25,354.25,-62.8798,0.1062,974.1,-1.29,-999.0,yes,yes,no,300234063479660,BD2GI,AOML,SA_AGULHAS,South
2017-12-20T07:00:28Z,1513753229,2017,7,0,354.292,354.292,-62.8766,0.1068,973.8,-1.29,-999.0,yes,yes,no,300234063479660,BD2GI,AOML,SA_AGULHAS,South
2017-12-20T07:59:31Z,1513756771,2017,8,0,354.333,354.333,-62.8748,0.104,973.4,-1.29,-999.0,yes,yes,no,300234063479660,BD2GI,AOML,SA_AGULHAS,South
2017-12-20T09:00:00Z,1513760400,2017,9,0,354.375,354.375,-62.8742,0.1014,973.1,-1.26,-999.0,yes,yes,no,300234063479660,BD2GI,AOML,SA_AGULHAS,South
2017-12-20T10:00:28Z,1513764029,2017,10,0,354.417,354.417,-62.8734,0.101,972.9,-1.26,-999.0,yes,yes,no,300234063479660,BD2GI,AOML,SA_AGULHAS,South
2017-12-20T10:59:31Z,1513767571,2017,11,0,354.458,354.458,-62.8742,0.1008,972.7,-1.26,-999.0,yes,yes,no,300234063479660,BD2GI,AOML,SA_AGULHAS,South
2017-12-20T12:00:00Z,1513771200,2017,12,0,354.5,354.5,-62.8748,0.1042,972.6,-1.23,-999.0,yes,yes,no,300234063479660,BD2GI,AOML,SA_AGULHAS,South
2017-12-20T13:00:28Z,1513774829,2017,13,0,354.542,354.542,-62.8772,0.1084,972.4,-1.23,-999.0,yes,yes,no,300234063479660,BD2GI,AOML,SA_AGULHAS,South
2017-12-20T13:59:31Z,1513778371,2017,14,0,354.583,354.583,-62.8792,0.116,972.5,-1.23,-999.0,yes,yes,no,300234063479660,BD2GI,AOML,SA_AGULHAS,South
2017-12-20T15:00:00Z,1513782000,2017,15,0,354.625,354.625,-62.8802,0.1226,972.5,-1.23,-999.0,yes,yes,no,300234063479660,BD2GI,AOML,SA_AGULHAS,South
2017-12-20T16:00:28Z,1513785629,2017,16,0,354.667,354.667,-62.8802,0.1326,972.7,-1.19,-999.0,yes,yes,no,300234063479660,BD2GI,AOML,SA_AGULHAS,South
2017-12-20T16:59:31Z,1513789171,2017,17,0,354.708,354.708,-62.8778,0.1436,973.1,-1.19,-999.0,yes,yes,no,300234063479660,BD2GI,AOML,SA_AGULHAS,South
2017-12-20T18:00:00Z,1513792800,2017,18,0,354.75,354.75,-62.8754,0.1518,974.1,-1.19,-999.0,yes,yes,no,300234063479660,BD2GI,AOML,SA_AGULHAS,South
2017-12-20T19:00:28Z,1513796429,2017,19,0,354.792,354.792,-62.8706,0.161,974.9,-1.19,-999.0,yes,yes,no,300234063479660,BD2GI,AOML,SA_AGULHAS,South
2017-12-20T19:59:31Z,1513799971,2017,20,0,354.833,354.833,-62.8648,0.1642,975.7,-1.23,-999.0,yes,yes,no,300234063479660,BD2GI,AOML,SA_AGULHAS,South
2017-12-20T21:00:00Z,1513803600,2017,21,0,354.875,354.875,-62.8584,0.1624,976.4,-1.23,-999.0,yes,yes,no,300234063479660,BD2GI,AOML,SA_AGULHAS,South
2017-12-20T22:00:28Z,1513807229,2017,22,0,354.917,354.917,-62.8534,0.158,976.9,-1.23,-999.0,yes,yes,no,300234063479660,BD2GI,AOML,SA_AGULHAS,South
2017-12-20T22:59:31Z,1513810771,2017,23,0,354.958,354.958,-62.8508,0.153,977.4,-1.23,-999.0,yes,yes,no,300234063479660,BD2GI,AOML,SA_AGULHAS,South
2017-12-21T00:00:00Z,1513814400,2017,0,0,355.0,355.0,-62.8496,0.148,977.6,-1.23,-999.0,yes,yes,no,300234063479660,BD2GI,AOML,SA_AGULHAS,South
2017-12-21T01:00:28Z,1513818029,2017,1,0,355.042,355.042,-62.8492,0.1438,977.7,-1.26,-999.0,yes,yes,no,300234063479660,BD2GI,AOML,SA_AGULHAS,South
2017-12-21T01:59:31Z,1513821571,2017,2,0,355.083,355.083,-62.85,0.1438,977.9,-1.26,-999.0,yes,yes,no,300234063479660,BD2GI,AOML,SA_AGULHAS,South
2017-12-21T03:00:00Z,1513825200,2017,3,0,355.125,355.125,-62.8524,0.1442,977.8,-1.26,-999.0,yes,yes,no,300234063479660,BD2GI,AOML,SA_AGULHAS,South
2017-12-21T04:00:28Z,1513828829,2017,4,0,355.167,355.167,-62.8528,0.1468,977.9,-1.26,-999.0,yes,yes,no,300234063479660,BD2GI,AOML,SA_AGULHAS,South
2017-12-21T04:59:31Z,1513832371,2017,5,0,355.208,355.208,-62.854,0.1528,977.9,-1.26,-999.0,yes,yes,no,300234063479660,BD2GI,AOML,SA_AGULHAS,South
2017-12-21T06:00:00Z,1513836000,2017,6,0,355.25,355.25,-62.8534,0.1592,978.1,-1.23,-999.0,yes,yes,no,300234063479660,BD2GI,AOML,SA_AGULHAS,South
2017-12-21T07:00:28Z,1513839629,2017,7,0,355.292,355.292,-62.8528,0.1654,978.0,-1.23,-999.0,yes,yes,no,300234063479660,BD2GI,AOML,SA_AGULHAS,South
2017-12-21T07:59:31Z,1513843171,2017,8,0,355.333,355.333,-62.8502,0.1706,978.0,-1.19,-999.0,yes,yes,no,300234063479660,BD2GI,AOML,SA_AGULHAS,South
2017-12-21T09:00:00Z,1513846800,2017,9,0,355.375,355.375,-62.8458,0.1754,978.2,-1.19,-999.0,yes,yes,no,300234063479660,BD2GI,AOML,SA_AGULHAS,South
2017-12-21T10:00:28Z,1513850429,2017,10,0,355.417,355.417,-62.8426,0.1764,978.0,-1.16,-999.0,yes,yes,no,300234063479660,BD2GI,AOML,SA_AGULHAS,South
2017-12-21T10:59:31Z,1513853971,2017,11,0,355.458,355.458,-62.8376,0.175,977.9,-1.16,-999.0,yes,yes,no,300234063479660,BD2GI,AOML,SA_AGULHAS,South
2017-12-21T12:00:00Z,1513857600,2017,12,0,355.5,355.5,-62.8346,0.1712,977.7,-1.16,-999.0,yes,yes,no,300234063479660,BD2GI,AOML,SA_AGULHAS,South
2017-12-21T13:00:28Z,1513861229,2017,13,0,355.542,355.542,-62.8324,0.1656,977.6,-1.16,-999.0,yes,yes,no,300234063479660,BD2GI,AOML,SA_AGULHAS,South
2017-12-21T13:59:31Z,1513864771,2017,14,0,355.583,355.583,-62.8328,0.157,977.6,-1.16,-999.0,yes,yes,no,300234063479660,BD2GI,AOML,SA_AGULHAS,South
2017-12-21T15:00:00Z,1513868400,2017,15,0,355.625,355.625,-62.8342,0.1534,977.5,-1.16,-999.0,yes,yes,no,300234063479660,BD2GI,AOML,SA_AGULHAS,South
2017-12-21T16:00:28Z,1513872029,2017,16,0,355.667,355.667,-62.837,0.1526,977.6,-1.12,-999.0,yes,yes,no,300234063479660,BD2GI,AOML,SA_AGULHAS,South
2017-12-21T16:59:31Z,1513875571,2017,17,0,355.708,355.708,-62.8396,0.157,977.7,-1.09,-999.0,yes,yes,no,300234063479660,BD2GI,AOML,SA_AGULHAS,South
2017-12-21T18:00:00Z,1513879200,2017,18,0,355.75,355.75,-62.8398,0.1638,977.9,-1.09,-999.0,yes,yes,no,300234063479660,BD2GI,AOML,SA_AGULHAS,South
2017-12-21T19:00:28Z,1513882829,2017,19,0,355.792,355.792,-62.839,0.1716,978.2,-1.09,-999.0,yes,yes,no,300234063479660,BD2GI,AOML,SA_AGULHAS,South
2017-12-21T19:59:31Z,1513886371,2017,20,0,355.833,355.833,-62.8368,0.1776,978.6,-1.12,-999.0,yes,yes,no,300234063479660,BD2GI,AOML,SA_AGULHAS,South
2017-12-21T21:00:00Z,1513890000,2017,21,0,355.875,355.875,-62.8334,0.1828,978.9,-1.12,-999.0,yes,yes,no,300234063479660,BD2GI,AOML,SA_AGULHAS,South
2017-12-21T22:00:28Z,1513893629,2017,22,0,355.917,355.917,-62.8284,0.1848,979.1,-1.16,-999.0,yes,yes,no,300234063479660,BD2GI,AOML,SA_AGULHAS,South
2017-12-21T22:59:31Z,1513897171,2017,23,0,355.958,355.958,-62.823,0.1828,979.1,-1.16,-999.0,yes,yes,no,300234063479660,BD2GI,AOML,SA_AGULHAS,South
2017-12-22T00:00:00Z,1513900800,2017,0,0,356.0,356.0,-62.8178,0.1798,979.2,-1.12,-999.0,yes,yes,no,300234063479660,BD2GI,AOML,SA_AGULHAS,South
2017-12-22T01:00:28Z,1513904429,2017,1,0,356.042,356.042,-62.8136,0.173,979.1,-1.16,-999.0,yes,yes,no,300234063479660,BD2GI,AOML,SA_AGULHAS,South
2017-12-22T01:59:31Z,1513907971,2017,2,0,356.083,356.083,-62.8114,0.1644,979.0,-1.16,-999.0,yes,yes,no,300234063479660,BD2GI,AOML,SA_AGULHAS,South
2017-12-22T03:00:00Z,1513911600,2017,3,0,356.125,356.125,-62.8116,0.155,979.2,-1.16,-999.0,yes,yes,no,300234063479660,BD2GI,AOML,SA_AGULHAS,South
2017-12-22T04:00:28Z,1513915229,2017,4,0,356.167,356.167,-62.8136,0.149,979.3,-1.16,-999.0,yes,yes,no,300234063479660,BD2GI,AOML,SA_AGULHAS,South
2017-12-22T04:59:31Z,1513918771,2017,5,0,356.208,356.208,-62.8154,0.1478,979.4,-1.16,-999.0,yes,yes,no,300234063479660,BD2GI,AOML,SA_AGULHAS,South
2017-12-22T06:00:00Z,1513922400,2017,6,0,356.25,356.25,-62.8162,0.1528,979.5,-1.16,-999.0,yes,yes,no,300234063479660,BD2GI,AOML,SA_AGULHAS,South
2017-12-22T07:00:28Z,1513926029,2017,7,0,356.292,356.292,-62.8178,0.1548,979.7,-1.16,-999.0,yes,yes,no,300234063479660,BD2GI,AOML,SA_AGULHAS,South
2017-12-22T07:59:31Z,1513929571,2017,8,0,356.333,356.333,-62.8174,0.1594,980.0,-1.12,-999.0,yes,yes,no,300234063479660,BD2GI,AOML,SA_AGULHAS,South
2017-12-22T09:00:00Z,1513933200,2017,9,0,356.375,356.375,-62.815,0.1644,980.1,-1.12,-999.0,yes,yes,no,300234063479660,BD2GI,AOML,SA_AGULHAS,South
2017-12-22T10:00:28Z,1513936829,2017,10,0,356.417,356.417,-62.8114,0.1684,980.2,-1.09,-999.0,yes,yes,no,300234063479660,BD2GI,AOML,SA_AGULHAS,South
2017-12-22T10:59:31Z,1513940371,2017,11,0,356.458,356.458,-62.8078,0.1706,980.3,-1.06,-999.0,yes,yes,no,300234063479660,BD2GI,AOML,SA_AGULHAS,South
2017-12-22T12:00:00Z,1513944000,2017,12,0,356.5,356.5,-62.8034,0.1702,980.3,-1.06,-999.0,yes,yes,no,300234063479660,BD2GI,AOML,SA_AGULHAS,South
2017-12-22T13:00:28Z,1513947629,2017,13,0,356.542,356.542,-62.799,0.1686,980.4,-1.02,-999.0,yes,yes,no,300234063479660,BD2GI,AOML,SA_AGULHAS,South
2017-12-22T13:59:31Z,1513951171,2017,14,0,356.583,356.583,-62.7952,0.1634,980.6,-0.99,-999.0,yes,yes,no,300234063479660,BD2GI,AOML,SA_AGULHAS,South
2017-12-22T15:00:00Z,1513954800,2017,15,0,356.625,356.625,-62.7924,0.1576,980.8,-0.92,-999.0,yes,yes,no,300234063479660,BD2GI,AOML,SA_AGULHAS,South
2017-12-22T16:00:28Z,1513958429,2017,16,0,356.667,356.667,-62.7922,0.153,980.8,-0.88,-999.0,yes,yes,no,300234063479660,BD2GI,AOML,SA_AGULHAS,South
2017-12-22T16:59:31Z,1513961971,2017,17,0,356.708,356.708,-62.7922,0.1494,980.9,-0.85,-999.0,yes,yes,no,300234063479660,BD2GI,AOML,SA_AGULHAS,South
2017-12-22T18:00:00Z,1513965600,2017,18,0,356.75,356.75,-62.7926,0.1478,981.1,-0.88,-999.0,yes,yes,no,300234063479660,BD2GI,AOML,SA_AGULHAS,South
2017-12-22T19:00:28Z,1513969229,2017,19,0,356.792,356.792,-62.794,0.1482,981.3,-0.88,-999.0,yes,yes,no,300234063479660,BD2GI,AOML,SA_AGULHAS,South
2017-12-22T19:59:31Z,1513972771,2017,20,0,356.833,356.833,-62.794,0.1498,981.4,-0.85,-999.0,yes,yes,no,300234063479660,BD2GI,AOML,SA_AGULHAS,South
2017-12-22T21:00:00Z,1513976400,2017,21,0,356.875,356.875,-62.7932,0.1528,981.7,-0.88,-999.0,yes,yes,no,300234063479660,BD2GI,AOML,SA_AGULHAS,South
2017-12-22T22:00:28Z,1513980029,2017,22,0,356.917,356.917,-62.7904,0.1552,981.7,-0.88,-999.0,yes,yes,no,300234063479660,BD2GI,AOML,SA_AGULHAS,South
2017-12-22T22:59:31Z,1513983571,2017,23,0,356.958,356.958,-62.7874,0.156,981.9,-0.88,-999.0,yes,yes,no,300234063479660,BD2GI,AOML,SA_AGULHAS,South
2017-12-23T00:00:00Z,1513987200,2017,0,0,357.0,357.0,-62.784,0.1566,981.7,-0.92,-999.0,yes,yes,no,300234063479660,BD2GI,AOML,SA_AGULHAS,South
2017-12-23T01:00:28Z,1513990829,2017,1,0,357.042,357.042,-62.781,0.1544,981.6,-0.92,-999.0,yes,yes,no,300234063479660,BD2GI,AOML,SA_AGULHAS,South
2017-12-23T01:59:31Z,1513994371,2017,2,0,357.083,357.083,-62.7778,0.153,981.8,-0.92,-999.0,yes,yes,no,300234063479660,BD2GI,AOML,SA_AGULHAS,South
2017-12-23T03:00:00Z,1513998000,2017,3,0,357.125,357.125,-62.7752,0.1476,982.0,-0.88,-999.0,yes,yes,no,300234063479660,BD2GI,AOML,SA_AGULHAS,South
2017-12-23T04:00:28Z,1514001629,2017,4,0,357.167,357.167,-62.7748,0.1448,982.0,-0.88,-999.0,yes,yes,no,300234063479660,BD2GI,AOML,SA_AGULHAS,South
2017-12-23T04:59:31Z,1514005171,2017,5,0,357.208,357.208,-62.7732,0.1418,982.0,-0.88,-999.0,yes,yes,no,300234063479660,BD2GI,AOML,SA_AGULHAS,South
2017-12-23T06:00:00Z,1514008800,2017,6,0,357.25,357.25,-62.773,0.1394,982.2,-0.88,-999.0,yes,yes,no,300234063479660,BD2GI,AOML,SA_AGULHAS,South
2017-12-23T07:00:28Z,1514012429,2017,7,0,357.292,357.292,-62.773,0.1398,982.4,-0.85,-999.0,yes,yes,no,300234063479660,BD2GI,AOML,SA_AGULHAS,South
2017-12-23T07:59:31Z,1514015971,2017,8,0,357.333,357.333,-62.7734,0.1392,982.5,-0.85,-999.0,yes,yes,no,300234063479660,BD2GI,AOML,SA_AGULHAS,South
2017-12-23T09:00:00Z,1514019600,2017,9,0,357.375,357.375,-62.7732,0.1392,982.8,-0.85,-999.0,yes,yes,no,300234063479660,BD2GI,AOML,SA_AGULHAS,South
2017-12-23T10:00:28Z,1514023229,2017,10,0,357.417,357.417,-62.772,0.1408,982.9,-0.85,-999.0,yes,yes,no,300234063479660,BD2GI,AOML,SA_AGULHAS,South